Temp
7 6 6 6 6 7 9 10 11 12 12 11 10 9 9 9 10 9 8 8 5 5 9 10 10 9 8 8 7 7 7 7 7 6 6 6 6 6 6 5 5 5 5 5 5 4 4 4 4
6 6 5 6 7 9 10 10 11 11 10 10 10 9 9 8 8 7 8 8 7 7 8 9 9 9 8 7 6 6 6 6 6 6 6 5 5 5 5 5 5 5 5 4 4 4 4 4 4
6 6 5 6 8 9 11 10 9 10 10 9 9 8 8 7 7 7 7 8 7 7 7 8 8 8 8 7 6 5 6 6 6 6 5 5 5 5 5 5 4 4 4 4 4 4 4 4 4
6 5 6 8 9 10 11 10 10 9 10 9 9 7 5 7 8 7 7 6 6 5 7 6 7 8 6 6 5 5 5 5 5 5 5 5 4 4 4 4 4 4 4 4 4 3 3 3 3
5 6 8 9 10 11 10 10 9 9 9 9 9 6 6 5 8 8 8 8 6 4 5 7 6 6 6 5 5 4 4 5 5 5 4 4 4 4 4 4 4 3 3 3 3 3 3 3 3
5 7 9 10 11 9 9 9 9 9 8 8 8 6 6 7 7 7 8 7 7 5 4 5 6 6 5 4 4 4 4 5 5 4 4 4 4 3 3 3 3 3 3 3 3 3 3 3 3
6 8 9 10 10 9 8 7 8 8 8 8 5 5 5 7 7 7 7 7 7 5 4 4 5 4 4 4 3 4 4 4 4 3 3 3 3 3 3 3 3 3 3 2 2 2 3 3 3
6 7 9 10 10 9 8 8 7 7 7 6 4 4 5 6 6 7 6 6 5 5 3 4 4 4 4 3 3 3 3 3 2 2 2 2 2 2 2 2 2 2 2 2 2 2 2 2 3
6 7 9 9 9 9 9 8 8 6 6 6 5 5 5 5 6 6 6 6 5 4 4 4 4 4 2 1 2 2 1 1 1 2 1 2 2 2 2 2 2 2 2 2 2 2 2 2 2
7 8 8 9 8 8 8 7 7 6 7 6 5 4 4 5 5 5 6 6 4 4 4 4 4 4 4 3 2 1 0 0 1 1 1 1 1 1 2 2 2 2 2 2 2 2 2 2 2
8 8 8 9 8 7 8 7 6 6 6 6 5 4 4 4 4 4 5 4 4 4 4 3 4 3 4 4 3 2 -1 0 0 -1 -1 -1 1 1 2 2 2 1 1 1 1 2 2 2 1
8 8 8 8 8 7 7 6 6 6 6 5 5 4 4 4 4 4 4 3 3 3 3 4 3 4 3 3 3 2 0 -2 -2 -1 -2 -2 -2 -0 2 2 1 1 1 1 1 2 1 1 1
8 8 8 8 8 7 7 6 6 5 6 5 4 4 4 4 4 4 4 4 4 3 3 3 3 3 3 2 1 -0 -0 -2 -2 -2 -2 -2 -1 1 2 2 1 1 1 1 1 1 1 1 1
8 8 8 8 8 8 7 6 6 5 5 5 5 4 3 3 3 3 4 3 3 2 3 2 3 3 3 2 -1 -0 -0 -1 -1 -2 -2 -2 -1 0 1 1 1 1 1 1 1 1 1 1 1
8 7 8 9 8 8 7 7 6 4 4 5 5 5 3 3 2 4 4 3 2 2 2 2 2 1 2 1 -0 -0 -1 -0 -1 -2 -1 -0 1 1 1 1 0 0 1 1 1 1 1 1 1
7 8 9 9 8 6 7 6 6 5 4 4 4 4 4 5 5 4 4 5 4 2 1 1 2 0 0 0 0 -1 -0 -1 -1 -1 -0 0 1 1 0 0 0 1 1 1 1 1 0 1 1
8 9 9 9 8 7 7 5 6 5 5 4 4 3 3 2 4 5 4 5 4 4 4 3 3 1 -0 -0 -0 -0 -0 -0 -1 -1 1 1 1 1 0 0 1 1 1 1 1 1 1 1 0
9 9 9 9 9 9 7 6 5 5 5 5 4 4 3 2 4 5 4 4 4 4 4 3 3 3 3 1 0 -0 0 1 1 1 1 1 1 1 1 1 2 1 2 1 1 1 1 1 0
9 9 9 9 8 8 9 6 7 6 6 5 5 4 3 3 4 5 5 4 4 4 4 3 3 2 2 1 2 2 2 2 2 1 1 1 1 2 1 1 2 1 2 1 1 1 1 0 0
9 9 9 9 9 9 9 8 7 8 6 6 5 5 4 3 4 6 5 5 5 5 4 4 3 3 2 3 2 2 2 2 2 2 2 1 0 2 1 1 2 1 1 1 1 1 0 0 0
9 9 9 10 9 9 9 10 7 7 7 6 6 5 5 4 5 6 6 6 5 5 5 4 4 4 3 3 2 3 3 3 3 3 2 3 2 2 2 2 2 1 1 1 1 1 0 -0 -1
8 9 9 8 9 9 9 9 9 9 8 7 6 6 5 5 4 6 6 6 6 5 5 5 4 4 4 4 4 4 3 3 3 3 3 3 2 2 2 1 1 1 1 0 1 0 -0 -1 -1
9 8 8 9 9 9 9 9 11 9 9 8 7 6 6 6 5 5 6 6 6 6 5 5 5 5 4 4 4 3 4 4 3 3 3 3 2 2 2 1 1 1 1 1 0 0 -0 -2 -3
9 8 8 8 9 9 9 10 10 9 9 9 8 7 6 6 6 5 5 6 6 6 6 5 5 5 5 5 4 4 3 3 3 3 3 3 2 2 2 1 1 1 0 0 -1 -1 -1 -1 -1
8 8 8 8 8 8 9 10 10 9 9 8 9 8 5 6 6 5 5 5 6 6 6 6 6 5 5 5 5 4 4 4 3 3 3 3 2 3 2 1 1 1 -0 -0 -1 -1 -0 -1 -1
8 8 8 7 6 8 6 9 10 10 8 9 9 9 8 7 7 7 6 6 5 6 6 6 6 6 5 5 5 5 3 3 2 2 1 2 2 2 1 1 2 1 0 -0 0 -0 -1 -1 -1
8 8 8 8 7 5 4 7 10 10 9 9 9 9 8 8 8 7 6 6 6 6 6 6 6 6 5 5 5 4 3 3 3 2 2 2 2 2 1 2 1 1 0 0 -0 -1 -2 -2 -2
8 8 8 8 7 6 8 9 10 9 9 9 8 8 8 8 8 7 7 7 6 6 6 5 6 6 5 5 5 5 4 4 3 2 2 2 2 2 2 2 1 1 1 0 -0 -0 -1 -2 -2
8 8 7 7 9 7 7 9 8 8 9 9 9 8 8 7 7 7 7 7 6 6 6 5 5 4 5 4 4 4 5 4 3 3 3 3 2 2 2 2 2 1 1 0 -0 -1 -1 -2 -2
8 8 7 8 8 8 8 8 8 7 8 8 8 8 8 7 7 6 7 7 7 7 6 5 5 5 4 3 3 3 3 4 4 3 3 3 2 2 2 2 2 1 0 -0 -1 -1 -2 -2 -2
Height
3121 3120 3120 3119 3127 3119 3111 3109 3106 3103 3102 3101 3097 3100 3106 3102 3109 3109 3108 3097 3110 3115 3122 3123 3121 3125 3128 3130 3134 3138 3142 3146 3148 3151 3153 3155 3157 3159 3161 3161 3163 3163 3165 3165 3166 3168 3169 3169 3170
3120 3118 3120 3121 3123 3113 3106 3105 3102 3103 3102 3100 3101 3103 3104 3102 3111 3109 3110 3106 3115 3119 3121 3122 3122 3122 3126 3129 3133 3137 3141 3145 3148 3150 3153 3155 3157 3159 3161 3163 3165 3166 3167 3167 3168 3169 3170 3171 3170
3119 3119 3121 3120 3117 3111 3106 3106 3106 3102 3103 3102 3101 3103 3103 3100 3109 3114 3112 3109 3111 3117 3119 3118 3122 3123 3124 3127 3133 3137 3141 3145 3147 3150 3152 3155 3158 3160 3162 3164 3165 3167 3168 3168 3169 3171 3170 3171 3170
3118 3121 3121 3117 3112 3108 3106 3105 3105 3104 3103 3102 3106 3105 3108 3111 3111 3109 3106 3109 3108 3106 3113 3117 3119 3119 3121 3126 3132 3137 3141 3144 3147 3150 3153 3155 3159 3161 3164 3166 3167 3168 3169 3170 3170 3171 3171 3170 3169
3120 3120 3118 3113 3110 3108 3107 3106 3104 3102 3101 3102 3104 3094 3103 3113 3109 3105 3098 3105 3108 3088 3104 3111 3116 3119 3121 3124 3131 3136 3141 3144 3146 3149 3153 3156 3158 3162 3165 3167 3168 3170 3170 3170 3171 3171 3171 3171 3171
3121 3120 3115 3110 3108 3105 3105 3105 3105 3102 3103 3106 3099 3101 3106 3111 3109 3102 3094 3099 3098 3096 3096 3108 3112 3116 3118 3124 3131 3135 3140 3142 3146 3150 3153 3156 3159 3163 3165 3168 3169 3170 3171 3171 3172 3171 3171 3172 3172
3120 3119 3114 3110 3108 3108 3107 3106 3104 3105 3108 3096 3097 3099 3103 3102 3103 3103 3099 3095 3096 3093 3086 3102 3109 3115 3119 3123 3129 3135 3139 3141 3145 3150 3153 3157 3160 3162 3166 3168 3169 3171 3171 3172 3172 3172 3172 3173 3173
3121 3119 3114 3111 3108 3106 3106 3106 3102 3107 3103 3097 3095 3098 3099 3098 3095 3097 3099 3098 3096 3095 3098 3108 3111 3115 3118 3121 3126 3131 3136 3141 3143 3150 3152 3156 3159 3162 3165 3167 3168 3170 3171 3171 3172 3173 3173 3173 3174
3120 3119 3114 3112 3109 3107 3111 3110 3104 3098 3094 3099 3095 3103 3098 3096 3097 3097 3098 3098 3101 3102 3104 3108 3112 3113 3112 3115 3119 3126 3133 3144 3146 3147 3150 3154 3157 3162 3163 3165 3168 3169 3170 3171 3172 3173 3174 3173 3173
3119 3118 3116 3113 3109 3107 3109 3108 3103 3099 3095 3097 3101 3103 3097 3095 3098 3096 3096 3097 3101 3103 3105 3108 3110 3110 3114 3117 3117 3122 3124 3139 3142 3145 3147 3150 3155 3161 3163 3165 3167 3169 3170 3171 3172 3173 3172 3173 3173
3117 3116 3115 3112 3108 3107 3107 3106 3104 3100 3097 3091 3096 3097 3095 3093 3097 3096 3096 3098 3100 3101 3103 3105 3107 3109 3111 3114 3115 3120 3123 3128 3136 3140 3145 3151 3157 3161 3165 3166 3168 3169 3170 3171 3171 3171 3171 3171 3172
3117 3114 3114 3113 3110 3109 3108 3107 3104 3100 3099 3095 3095 3096 3094 3091 3092 3095 3096 3097 3098 3100 3100 3102 3105 3106 3110 3111 3110 3116 3115 3122 3133 3141 3145 3151 3157 3162 3165 3166 3167 3168 3169 3170 3171 3171 3170 3171 3171
3115 3114 3113 3112 3110 3109 3108 3108 3106 3101 3098 3098 3096 3095 3092 3087 3088 3091 3094 3093 3095 3096 3100 3101 3101 3103 3105 3105 3111 3116 3120 3123 3133 3140 3143 3152 3159 3163 3164 3165 3166 3167 3169 3169 3169 3170 3171 3171 3171
3114 3112 3111 3110 3111 3110 3107 3104 3103 3100 3099 3099 3098 3094 3090 3088 3087 3089 3090 3087 3089 3093 3095 3097 3099 3100 3104 3108 3113 3119 3120 3128 3133 3139 3147 3153 3157 3162 3163 3163 3164 3166 3167 3168 3168 3169 3170 3170 3169
3111 3110 3108 3109 3109 3107 3105 3103 3102 3101 3098 3096 3097 3094 3091 3088 3089 3088 3086 3086 3090 3092 3094 3097 3099 3103 3105 3110 3114 3118 3120 3123 3130 3141 3147 3152 3157 3160 3160 3161 3163 3164 3165 3166 3167 3167 3167 3167 3167
3109 3108 3105 3105 3107 3105 3105 3102 3102 3102 3099 3095 3096 3096 3092 3090 3089 3090 3090 3091 3092 3093 3095 3096 3100 3103 3108 3113 3116 3119 3125 3132 3137 3143 3147 3151 3155 3157 3159 3160 3161 3162 3163 3164 3165 3165 3165 3165 3165
3105 3102 3101 3101 3103 3100 3102 3104 3104 3106 3107 3102 3096 3098 3097 3096 3095 3094 3097 3097 3097 3097 3099 3101 3103 3106 3112 3117 3117 3121 3127 3132 3137 3143 3147 3150 3152 3155 3156 3158 3159 3159 3161 3162 3163 3163 3162 3162 3162
3101 3101 3098 3098 3100 3100 3096 3101 3101 3103 3110 3110 3103 3100 3100 3098 3098 3099 3101 3102 3102 3103 3106 3108 3110 3113 3116 3116 3122 3128 3131 3136 3139 3142 3145 3147 3149 3152 3154 3155 3156 3158 3158 3160 3160 3160 3160 3159 3158
3100 3100 3098 3096 3098 3097 3097 3095 3096 3100 3109 3109 3105 3101 3102 3103 3099 3101 3103 3105 3106 3107 3108 3111 3111 3112 3115 3119 3123 3127 3132 3134 3137 3140 3142 3146 3148 3150 3151 3152 3154 3156 3156 3157 3157 3157 3156 3155 3155
3098 3098 3096 3094 3095 3096 3096 3094 3093 3094 3100 3104 3103 3098 3101 3102 3100 3102 3104 3106 3108 3109 3110 3111 3113 3115 3117 3121 3124 3127 3131 3133 3136 3138 3141 3142 3142 3148 3149 3150 3152 3154 3153 3153 3153 3153 3151 3149 3151
3096 3096 3095 3094 3095 3094 3092 3094 3089 3092 3097 3099 3099 3097 3099 3100 3099 3101 3103 3105 3106 3109 3111 3113 3115 3118 3119 3122 3124 3127 3129 3131 3133 3137 3139 3141 3144 3145 3147 3148 3148 3150 3149 3148 3150 3149 3146 3144 3143
3094 3094 3095 3095 3094 3091 3090 3089 3090 3092 3093 3094 3094 3096 3096 3098 3099 3099 3102 3104 3107 3109 3111 3113 3115 3117 3119 3120 3122 3125 3127 3130 3133 3135 3138 3140 3141 3142 3142 3143 3144 3144 3146 3142 3143 3143 3142 3139 3134
3093 3092 3092 3093 3091 3089 3089 3089 3082 3087 3088 3090 3091 3094 3097 3096 3097 3097 3100 3103 3106 3108 3110 3113 3114 3116 3118 3120 3122 3124 3126 3128 3130 3131 3132 3135 3137 3138 3139 3137 3139 3140 3139 3137 3134 3134 3130 3131 3130
3090 3091 3092 3092 3090 3087 3085 3085 3082 3083 3085 3087 3087 3093 3096 3096 3094 3097 3099 3102 3104 3106 3108 3110 3111 3113 3116 3118 3120 3121 3124 3125 3127 3128 3129 3130 3131 3133 3134 3134 3132 3133 3132 3130 3125 3122 3123 3121 3121
3087 3089 3089 3089 3085 3083 3083 3080 3079 3079 3081 3083 3086 3085 3083 3093 3093 3095 3096 3098 3100 3103 3105 3107 3108 3110 3113 3115 3117 3119 3121 3123 3124 3125 3122 3123 3126 3127 3128 3128 3127 3126 3122 3120 3120 3118 3116 3115 3113
3082 3086 3085 3087 3086 3084 3085 3078 3076 3075 3078 3082 3084 3082 3081 3086 3088 3090 3094 3094 3096 3098 3101 3103 3105 3107 3109 3111 3112 3115 3118 3119 3120 3119 3116 3120 3120 3122 3122 3121 3119 3119 3117 3115 3114 3113 3111 3108 3105
3078 3079 3082 3081 3083 3085 3088 3080 3076 3075 3076 3079 3082 3082 3084 3086 3084 3086 3090 3093 3093 3094 3095 3098 3100 3103 3105 3106 3107 3109 3109 3110 3111 3107 3110 3112 3112 3115 3115 3114 3113 3113 3112 3109 3108 3106 3103 3101 3099
3072 3077 3078 3075 3077 3081 3076 3072 3070 3070 3075 3076 3078 3080 3081 3082 3084 3086 3086 3089 3091 3092 3090 3091 3089 3091 3098 3100 3100 3101 3101 3102 3105 3099 3106 3106 3109 3109 3108 3108 3107 3106 3104 3102 3100 3098 3094 3092 3090
3069 3070 3072 3075 3071 3072 3072 3070 3065 3070 3073 3073 3075 3077 3078 3079 3080 3081 3083 3085 3088 3089 3088 3074 3079 3081 3088 3093 3091 3093 3097 3098 3097 3099 3098 3100 3102 3103 3102 3101 3100 3098 3096 3093 3092 3090 3087 3083 3081
3063 3064 3067 3068 3068 3066 3067 3068 3067 3068 3071 3071 3072 3075 3075 3076 3077 3077 3079 3080 3082 3084 3086 3087 3085 3085 3087 3088 3086 3089 3090 3090 3091 3093 3094 3095 3095 3095 3094 3093 3092 3090 3087 3085 3083 3081 3078 3075 3072
Wind_Speed
11 6 3 4 8 12 20 22 21 21 11 5 8 5 15 10 19 21 20 37 35 8 6 9 17 21 22 23 22 20 17 15 13 11 12 14 15 15 14 17 16 17 16 15 15 15 14 13 11
8 5 4 4 15 21 22 14 14 11 6 12 18 19 21 16 15 14 10 10 21 21 11 12 15 20 22 23 23 21 18 16 14 13 15 16 17 15 16 16 16 16 16 15 15 14 12 10 9
5 5 5 12 18 25 19 12 9 11 13 11 9 15 14 18 23 21 20 18 25 23 17 18 16 16 22 24 23 21 19 17 15 15 17 17 17 17 17 16 17 16 15 14 12 11 11 10 10
2 7 9 9 14 16 14 5 9 12 12 13 12 18 11 11 19 22 21 16 26 21 21 23 16 21 26 24 24 22 20 19 17 18 19 19 19 18 17 17 15 14 13 12 10 10 11 12 12
9 3 15 20 19 16 13 14 13 14 14 16 9 9 13 15 10 13 27 25 25 13 24 23 21 15 17 25 25 23 21 19 19 22 22 21 20 19 18 16 14 12 11 10 10 10 11 12 13
7 13 16 20 10 6 5 9 16 17 11 13 16 14 8 13 10 9 16 23 28 42 30 33 31 30 28 27 25 23 22 24 20 23 24 22 22 21 18 15 13 11 10 10 10 11 11 11 12
8 12 20 17 10 13 16 23 10 14 11 18 26 9 18 5 9 7 4 5 18 15 36 32 29 31 31 28 27 25 25 25 26 26 26 24 23 19 17 14 11 8 8 8 9 9 9 10 10
13 13 17 12 12 7 5 12 16 11 14 28 12 5 8 7 10 9 4 7 5 10 12 9 18 29 31 30 30 30 31 30 29 26 29 26 20 19 17 13 10 7 6 8 9 8 8 8 9
8 13 14 7 14 14 13 13 20 19 12 13 7 10 8 7 12 10 7 10 9 16 18 18 22 20 30 35 35 34 32 28 30 33 31 24 24 21 17 13 9 6 4 6 8 6 6 7 9
9 15 12 10 10 13 14 15 12 15 20 21 9 10 10 10 9 8 9 11 10 12 14 13 18 29 19 25 26 39 37 35 37 35 31 31 25 20 13 10 4 2 3 5 7 3 5 5 6
10 13 10 11 12 12 13 13 9 13 21 21 20 11 11 9 9 8 10 9 10 10 10 9 12 23 30 29 28 30 46 47 43 42 37 25 20 17 13 7 5 2 1 4 4 2 2 4 7
11 9 10 12 14 11 12 10 15 18 16 12 5 8 11 14 13 12 10 9 9 9 8 15 12 19 19 32 36 37 52 49 42 39 31 22 22 15 14 10 5 4 4 5 2 0 3 3 4
12 12 12 12 16 10 11 10 8 18 17 9 7 9 11 13 13 9 8 10 10 11 18 18 17 19 18 37 34 38 30 35 44 38 28 25 20 18 16 9 8 7 6 5 2 1 2 1 2
11 13 14 14 10 8 5 4 2 12 13 5 9 8 4 5 5 5 8 12 9 11 12 9 16 20 23 26 31 23 23 34 32 37 29 24 22 20 17 10 9 8 8 7 5 6 5 3 4
16 16 15 13 9 9 10 8 10 2 6 5 7 19 17 14 4 9 6 3 10 12 8 12 19 15 25 22 32 27 36 37 31 36 29 25 22 18 13 13 11 11 11 9 8 8 7 7 7
15 17 20 10 11 10 11 16 7 9 8 2 9 16 20 17 15 14 9 11 6 9 11 17 18 16 21 20 25 26 20 31 32 27 25 23 22 16 16 14 13 13 11 11 11 11 10 10 11
15 20 13 15 13 16 14 15 7 5 9 6 2 5 6 5 1 2 10 13 18 18 19 22 22 21 24 24 17 33 37 34 29 26 23 21 18 17 15 15 14 13 12 14 13 14 13 12 14
8 17 20 6 7 11 15 8 7 9 10 11 8 7 5 2 1 5 7 11 17 20 19 20 21 21 20 23 26 31 30 22 21 20 19 19 17 17 16 15 14 12 15 16 16 16 16 17 17
18 12 17 10 9 9 14 19 7 4 13 15 14 13 12 11 7 5 11 13 13 13 13 12 11 13 15 17 18 22 22 20 20 19 17 20 19 15 15 16 13 15 17 18 19 20 19 22 23
20 17 19 8 8 8 9 11 11 5 19 17 16 15 14 13 11 6 10 11 13 11 13 13 12 13 14 15 17 18 18 18 18 17 16 19 17 13 15 17 17 18 22 24 23 21 24 27 26
16 18 17 12 8 11 13 14 16 12 18 14 13 12 16 16 12 12 12 10 10 12 12 12 12 13 14 16 17 19 19 21 21 18 16 17 16 17 16 18 22 21 24 29 28 27 29 31 33
19 14 11 17 12 13 6 14 9 14 12 14 15 16 14 20 17 11 17 16 13 13 13 13 13 12 13 14 17 16 17 18 16 14 15 18 19 21 23 23 22 23 26 31 32 32 32 35 38
17 12 16 14 16 16 11 14 13 14 16 19 18 19 20 19 21 19 14 16 14 14 14 15 15 15 16 17 17 20 18 17 18 20 18 19 19 22 23 26 27 28 32 32 39 36 36 37 38
16 11 11 15 18 13 18 14 11 10 12 15 21 15 21 24 20 22 19 16 20 19 19 19 18 18 19 18 19 19 18 20 22 22 24 22 22 24 26 30 28 30 32 34 34 38 36 38 40
18 14 14 13 13 8 15 14 18 11 8 15 13 9 28 26 24 25 24 23 22 23 22 22 23 22 22 22 22 22 22 24 25 27 28 24 22 23 22 29 32 38 49 40 36 28 35 43 40
21 23 16 7 4 8 20 8 13 8 7 9 5 6 7 24 17 21 26 29 27 23 24 23 23 23 24 25 26 23 25 27 28 32 33 27 24 22 20 30 33 33 28 29 30 32 33 36 37
23 27 26 29 8 3 8 24 13 12 10 9 8 8 9 14 21 24 25 28 31 31 29 28 27 26 26 27 25 25 31 31 36 32 30 30 24 23 27 31 29 31 28 29 32 34 33 30 31
29 21 19 25 10 7 16 23 14 9 13 10 8 7 7 9 14 16 23 24 31 33 34 36 35 29 31 33 34 33 35 36 40 29 28 29 25 28 28 30 32 31 30 30 32 31 34 42 34
25 25 16 24 23 6 5 8 0 7 14 9 7 10 11 10 9 13 19 26 26 31 35 39 34 25 32 37 38 37 34 34 33 23 22 23 26 28 29 31 32 34 34 34 35 33 36 35 35
26 26 26 25 15 16 13 16 4 12 9 7 11 10 11 12 9 10 10 9 11 22 32 31 34 34 38 32 35 33 33 32 28 22 22 23 27 28 30 34 35 35 36 36 37 34 35 45 40
Wind_Direction
317 324 330 25 253 244 258 257 253 267 299 313 259 338 217 202 240 250 266 297 270 295 283 229 199 196 189 181 174 169 163 155 144 141 141 141 140 140 135 128 125 118 113 108 104 97 93 90 88
326 357 303 288 251 276 266 321 296 270 297 288 252 260 278 222 246 266 274 309 196 244 217 228 216 201 193 183 174 169 164 157 153 152 149 147 143 139 135 128 122 115 112 106 98 93 87 83 78
7 28 284 248 259 260 289 300 319 303 301 290 295 245 247 241 229 261 261 257 213 230 213 198 211 204 195 184 176 169 165 162 162 159 154 151 145 139 135 128 121 118 109 98 91 83 76 72 70
18 321 286 257 266 280 302 293 264 292 285 281 257 249 271 268 258 246 248 243 220 199 205 192 206 216 206 185 176 172 168 167 167 163 158 153 146 140 137 130 125 112 102 93 84 72 63 64 71
16 348 264 260 274 280 300 288 287 278 272 267 278 231 248 259 277 259 241 249 249 262 197 189 187 192 228 181 178 174 172 172 169 161 158 155 147 144 141 133 122 112 99 82 71 65 65 74 81
257 264 279 283 306 14 258 273 278 270 277 275 256 256 220 237 254 239 226 239 288 255 198 188 187 197 200 182 179 177 176 172 172 165 160 155 152 149 142 138 121 109 89 74 65 63 77 87 86
283 289 275 301 320 324 315 254 258 296 296 253 281 238 245 240 246 280 232 302 297 284 189 189 192 191 188 181 179 181 179 175 168 164 158 156 156 153 149 137 125 110 89 64 54 62 79 84 78
279 276 279 297 295 15 12 340 292 297 291 292 253 296 255 255 265 284 297 266 260 220 192 226 200 183 192 184 182 182 177 172 168 173 160 160 158 157 153 143 128 113 81 54 43 60 87 89 79
259 274 283 298 323 323 322 327 317 297 282 287 345 305 276 261 259 260 259 232 216 235 234 211 213 210 190 182 180 178 176 180 182 169 162 165 166 165 155 145 152 142 97 44 29 60 91 86 80
265 272 306 319 317 322 322 324 305 298 297 290 326 322 288 276 255 253 258 235 235 238 238 244 217 197 230 208 221 191 169 183 175 171 166 175 166 166 161 174 145 123 61 23 11 69 90 111 100
263 267 298 300 327 324 314 327 1 308 313 338 304 312 291 276 266 259 253 231 238 253 235 231 220 224 220 236 210 201 176 179 177 175 177 162 168 170 184 188 207 189 325 349 349 60 74 46 30
264 275 280 297 308 315 328 335 333 320 326 340 346 288 286 281 276 270 260 242 235 235 240 231 244 252 232 240 206 218 190 185 177 185 162 172 168 188 180 207 219 228 265 322 283 167 44 12 21
262 272 283 292 306 292 310 321 13 313 320 310 336 303 279 269 277 278 264 252 254 234 217 240 242 240 239 224 201 195 211 214 181 177 166 176 179 179 209 216 226 244 264 291 258 233 255 316 345
273 280 276 284 288 290 268 295 313 290 309 327 349 336 279 262 272 290 251 251 253 244 238 222 233 222 230 212 194 202 171 168 179 179 171 170 173 185 219 232 234 251 282 274 243 232 248 291 318
268 276 276 263 274 253 256 274 286 234 308 17 65 77 80 69 139 71 59 104 172 174 207 206 217 223 202 211 200 187 181 197 178 165 159 164 189 206 222 231 243 261 268 253 245 251 265 288 302
270 264 265 247 262 257 244 288 252 194 265 16 118 90 80 73 62 78 68 81 133 193 142 140 155 164 205 201 208 199 183 143 148 153 174 193 203 204 221 233 249 255 254 253 251 255 263 276 283
258 256 251 263 247 236 245 293 227 186 212 196 50 73 33 52 357 11 97 102 105 111 120 122 124 144 164 139 125 148 151 157 175 188 187 195 202 214 224 243 248 252 248 250 253 258 267 274 287
269 275 285 238 202 229 244 249 172 150 206 196 170 164 171 263 263 188 147 125 123 117 121 122 124 125 133 132 143 160 162 176 175 187 193 199 207 217 230 243 251 248 253 253 258 266 270 282 291
267 283 269 230 273 230 272 174 117 165 205 207 196 179 180 180 245 169 160 155 147 146 146 151 149 146 145 155 159 165 175 178 186 192 204 210 219 225 231 244 250 250 260 261 262 269 279 281 287
255 266 271 206 226 233 272 193 196 221 188 207 191 223 186 192 234 202 177 172 162 158 163 164 165 168 170 173 175 179 184 191 203 210 210 236 213 237 246 255 259 258 262 263 268 274 274 279 282
250 249 253 290 257 266 269 268 200 162 183 200 187 234 186 208 227 207 208 193 182 174 174 173 171 175 182 183 190 196 196 201 209 217 219 226 238 250 252 257 265 268 271 273 273 273 277 278 278
241 240 250 264 266 267 300 289 269 194 194 197 201 204 218 210 224 217 208 211 198 192 189 189 188 189 188 193 193 202 211 220 229 239 237 243 248 251 255 260 267 274 276 275 273 272 272 274 279
237 248 253 256 265 281 276 260 246 207 218 218 210 209 213 218 213 231 208 208 211 212 207 209 207 209 209 209 219 215 220 226 231 243 249 248 253 259 265 266 268 271 273 278 277 268 264 265 268
231 233 237 253 260 267 268 258 253 224 243 242 220 211 224 218 215 222 234 213 211 213 216 219 223 223 229 232 228 237 238 237 242 249 253 258 255 263 272 268 277 280 278 279 286 285 282 287 282
226 231 242 238 234 237 267 240 242 208 275 210 233 270 205 220 217 215 225 237 222 220 220 226 229 231 234 240 241 236 244 250 248 251 259 262 251 281 279 271 274 287 284 285 295 295 287 287 284
213 227 230 259 253 275 328 280 243 235 191 173 199 289 213 216 239 229 214 232 243 239 230 232 237 240 243 247 249 248 244 257 256 255 251 275 267 283 283 270 270 294 305 296 294 295 295 297 291
219 219 235 258 210 85 211 257 247 207 182 206 230 217 219 231 238 236 224 223 236 245 249 242 241 241 242 247 250 248 260 241 248 257 250 271 279 282 278 280 293 299 295 293 297 298 303 307 301
235 233 241 233 236 234 242 236 232 214 214 200 201 231 204 210 212 219 231 233 235 241 250 257 259 246 253 251 252 249 259 260 255 276 254 264 276 276 283 288 294 297 293 292 291 299 288 297 287
217 234 234 242 239 212 247 278 36 201 206 180 197 222 226 219 227 225 223 221 226 243 244 244 274 257 268 265 255 256 258 263 270 273 269 273 275 275 285 289 293 294 294 292 289 289 299 281 291
229 232 232 247 247 251 251 250 229 184 220 236 232 231 209 213 224 242 237 231 223 224 222 237 248 257 261 262 251 244 264 266 266 270 277 274 278 282 285 287 290 291 290 289 288 289 295 289 275